Satellite-Ground Cal/Val Region Overpasses Predictions

Prediction of Satellite NPP Overpassing Cal/Val Region: PacNW

Region Location: (Latitude: 10.00, Longitude: 139.50) to (Latitude: 22.70, Longitude: 165.60).

Table of predicted overpasses for the next 14.0 days since TLE Epoch: 3/14/2014
Interval Starting Time Starting Location Ending Time Ending Location
1 03/14/2014 14:55:55 ( 22.64, 161.91) 03/14/2014 14:59:30 ( 10.03, 158.89)
2 03/15/2014 03:46:31 ( 10.01, 144.03) 03/15/2014 03:50:07 ( 22.69, 141.00)
3 03/15/2014 14:38:09 ( 18.33, 165.60) 03/15/2014 14:40:30 ( 10.05, 163.65)
4 03/15/2014 16:18:25 ( 22.68, 141.29) 03/15/2014 16:20:30 ( 15.35, 139.51)
5 03/16/2014 03:27:32 ( 10.05, 148.78) 03/16/2014 03:31:07 ( 22.67, 145.76)
6 03/16/2014 15:59:27 ( 22.65, 146.04) 03/16/2014 16:03:02 ( 10.03, 143.02)
7 03/17/2014 03:08:33 ( 10.02, 153.53) 03/17/2014 03:12:09 ( 22.70, 150.50)
8 03/17/2014 15:40:27 ( 22.67, 150.79) 03/17/2014 15:44:02 ( 10.05, 147.78)
9 03/18/2014 02:49:33 ( 10.00, 158.29) 03/18/2014 02:53:09 ( 22.68, 155.26)
10 03/18/2014 15:21:28 ( 22.69, 155.55) 03/18/2014 15:25:04 ( 10.01, 152.52)
11 03/19/2014 02:30:35 ( 10.04, 163.03) 03/19/2014 02:34:10 ( 22.66, 160.02)
12 03/19/2014 15:02:30 ( 22.65, 160.29) 03/19/2014 15:06:05 ( 10.03, 157.28)
13 03/20/2014 02:14:14 ( 19.36, 165.59) 03/20/2014 02:15:10 ( 22.64, 164.77)
14 03/20/2014 03:53:05 ( 10.02, 142.41) 03/20/2014 03:56:33 ( 22.23, 139.50)
15 03/20/2014 14:43:30 ( 22.66, 165.05) 03/20/2014 14:47:05 ( 10.04, 162.03)
16 03/20/2014 16:25:00 ( 22.67, 139.68) 03/20/2014 16:25:11 ( 22.02, 139.51)
17 03/21/2014 03:34:06 ( 10.01, 147.17) 03/21/2014 03:37:42 ( 22.68, 144.14)
18 03/21/2014 16:06:01 ( 22.68, 144.43) 03/21/2014 16:09:37 ( 10.00, 141.40)
19 03/22/2014 03:15:07 ( 10.05, 151.91) 03/22/2014 03:18:42 ( 22.67, 148.90)
20 03/22/2014 15:47:01 ( 22.69, 149.19) 03/22/2014 15:50:37 ( 10.01, 146.16)
21 03/23/2014 02:56:08 ( 10.05, 156.67) 03/23/2014 02:59:43 ( 22.67, 153.65)
22 03/23/2014 15:28:02 ( 22.70, 153.94) 03/23/2014 15:31:38 ( 10.02, 150.91)
23 03/24/2014 02:37:08 ( 10.04, 161.42) 03/24/2014 02:40:43 ( 22.66, 158.41)
24 03/24/2014 15:09:03 ( 22.64, 158.68) 03/24/2014 15:12:38 ( 10.02, 155.67)
25 03/25/2014 02:18:52 ( 12.57, 165.59) 03/25/2014 02:21:44 ( 22.66, 163.16)
26 03/25/2014 03:59:39 ( 10.03, 140.80) 03/25/2014 04:01:14 ( 15.61, 139.50)
27 03/25/2014 14:50:04 ( 22.64, 163.43) 03/25/2014 14:53:39 ( 10.03, 160.42)
28 03/26/2014 03:40:40 ( 10.03, 145.55) 03/26/2014 03:44:15 ( 22.66, 142.54)
29 03/26/2014 14:34:08 ( 11.85, 165.59) 03/26/2014 14:34:39 ( 10.02, 165.17)
30 03/26/2014 16:12:34 ( 22.65, 142.81) 03/26/2014 16:16:09 ( 10.03, 139.80)
31 03/27/2014 03:21:40 ( 10.04, 150.31) 03/27/2014 03:25:15 ( 22.66, 147.29)
32 03/27/2014 15:53:35 ( 22.64, 147.57) 03/27/2014 15:57:10 ( 10.03, 144.55)


NCC Satellite Cal/Val Overpasses Prediction Service
